Regional Weather Roundup
Issued by NWS Little Rock, AR

Home | Current Version | Previous Version | Text Only | Print | Product List | Glossary On
Versions: 1 2 3 4 5 6 7 8 9 10 11 12 13 14 15 16 17 18 19 20 21 22 23 24 25 26 27 28 29 30 31 32 33 34 35 36 37 38 39 40 41 42 43 44 45 46 47 48 49 50
047
ASUS44 KLZK 271105
RWRLZK

WEATHER ROUNDUP FOR ARKANSAS
NATIONAL WEATHER SERVICE LITTLE ROCK AR
600 AM CDT WED JUL 27 2016

NOTE: "FAIR" INDICATES FEW OR NO CLOUDS BELOW 12,000 FEET WITH NO
SIGNIFICANT WEATHER AND/OR OBSTRUCTIONS TO VISIBILITY.

ARZ001-003-010-029-271200-
NORTHWEST ARKANSAS

CITY           SKY/WX    TMP DP  RH WIND       PRES   REMARKS
FAYETTEVILLE   PTCLDY    70  70 100 CALM      30.00R
FORT SMITH     CLOUDY    77  72  84 NE6       29.95S
HARRISON       FOG       70  70 100 SE5       30.02R VSB 1/4
BENTONVILLE    PTCLDY    73  68  83 E3        30.00S
ROGERS         CLOUDY    73  72  96 E3        30.01R
SILOAM SPGS    CLOUDY    72  63  73 CALM      30.01R
HIGHFILL       PTCLDY    73  72  96 CALM      30.00R
SPRINGDALE     CLOUDY    73  72  94 CALM      30.01
$$

ARZ004-005-016-271200-
NORTH CENTRAL ARKANSAS

CITY           SKY/WX    TMP DP  RH WIND       PRES   REMARKS
BATESVILLE     PTCLDY    73  72  94 CALM      29.99R
FLIPPIN        CLOUDY    73  70  88 CALM      29.97F VSB<1/4
MTN HOME       PTCLDY    72  72 100 CALM      29.99F
$$

ARZ040-041-271200-
WEST CENTRAL ARKANSAS

CITY           SKY/WX    TMP DP  RH WIND       PRES   REMARKS
MENA           CLEAR     73  72  94 CALM      29.99R
MOUNT IDA      CLEAR     73  72  96 CALM      29.95R
$$

ARZ009-017-025-026-028-271200-
NORTHEAST ARKANSAS

CITY           SKY/WX    TMP DP  RH WIND       PRES   REMARKS
CORNING          N/A     73  73 100 NE3       29.98R
JONESBORO      PTCLDY    75  74  96 N3        29.96R
NEWPORT        CLEAR     75  75 100 N6        29.98R
WALNUT RIDGE   CLEAR     73  70  88 N5        29.97R
BLYTHEVILLE    CLEAR     75  73  93 CALM      29.97R
$$

ARZ022-023-033-042-044-271200-
CENTRAL ARKANSAS

CITY           SKY/WX    TMP DP  RH WIND       PRES   REMARKS
LITTLE ROCK    CLOUDY    80  74  81 N3        29.95R HX  85
N LITTLE ROCK    N/A     76  73  90 CALM      29.92S
JACKSONVILLE   CLOUDY    78  75  91 CALM      29.94S
SEARCY         CLOUDY    76  74  93 NW3       29.97R
HOT SPRINGS    PTCLDY    76  73  91 W3        29.95S
RUSSELLVILLE   PTCLDY    72  72 100 CALM      29.96R
$$

ARZ036-271200-
EAST ARKANSAS

CITY           SKY/WX    TMP DP  RH WIND       PRES   REMARKS
WEST MEMPHIS   MOCLDY    75  73  93 S3        29.94R
$$

ARZ050-053-066-070-073-271200-
SOUTHWEST ARKANSAS

CITY           SKY/WX    TMP DP  RH WIND       PRES   REMARKS
CAMDEN         RAIN      73  72  94 W6        29.94R
TEXARKANA      CLEAR     76  72  87 CALM      29.93S
EL DORADO      CLOUDY    74  73  97 CALM      29.94R
DE QUEEN       CLEAR     74  73  97 CALM      29.93R
$$

ARZ056-057-069-271200-
SOUTHEAST ARKANSAS

CITY           SKY/WX    TMP DP  RH WIND       PRES   REMARKS
PINE BLUFF     CLOUDY    76  73  91 E3        29.94R
STUTTGART      PTCLDY    79  72  78 CALM      29.94S
MONTICELLO     CLOUDY    77  74  90 SW3       29.94R

$$






USA.gov is the U.S. government's official web portal to all federal, state and local government web resources and services.